TimeCST,TemperatureF,Dew PointF,Humidity,Sea Level PressureIn,VisibilityMPH,Wind Direction,Wind SpeedMPH,Gust SpeedMPH,PrecipitationIn,Events,Conditions,WindDirDegrees,DateUTC
12:52 AM,25.0,19.0,78,30.29,10.0,NE,10.4,-,N/A,,Clear,40,2013-01-24 06:52:00
1:52 AM,24.1,18.0,77,30.28,10.0,NE,11.5,-,N/A,,Clear,40,2013-01-24 07:52:00
2:52 AM,21.9,16.0,78,30.27,10.0,NE,10.4,-,N/A,,Clear,50,2013-01-24 08:52:00
3:52 AM,19.9,15.1,81,30.27,10.0,ENE,12.7,-,N/A,,Clear,60,2013-01-24 09:52:00
4:52 AM,18.0,15.1,88,30.29,9.0,NE,6.9,-,N/A,,Clear,50,2013-01-24 10:52:00
5:29 AM,19.4,15.8,86,30.28,8.0,NNE,9.2,-,N/A,,Mostly Cloudy,20,2013-01-24 11:29:00
5:52 AM,19.0,16.0,88,30.33,8.0,NNE,10.4,-,N/A,,Overcast,30,2013-01-24 11:52:00
6:52 AM,19.9,15.1,81,30.33,9.0,NE,8.1,-,N/A,,Overcast,40,2013-01-24 12:52:00
7:52 AM,19.9,12.9,74,30.33,10.0,ENE,8.1,-,N/A,,Overcast,60,2013-01-24 13:52:00
8:52 AM,19.9,12.9,74,30.34,10.0,NE,6.9,-,N/A,,Overcast,40,2013-01-24 14:52:00
9:52 AM,19.9,12.9,74,30.35,10.0,NE,8.1,-,N/A,,Overcast,40,2013-01-24 15:52:00
10:52 AM,21.0,12.9,71,30.38,10.0,NE,9.2,-,N/A,,Overcast,40,2013-01-24 16:52:00
11:52 AM,21.9,14.0,72,30.34,9.0,Calm,Calm,-,N/A,,Overcast,0,2013-01-24 17:52:00
12:34 PM,23.0,14.0,68,30.21,9.0,East,3.5,-,N/A,,Overcast,80,2013-01-24 18:34:00
12:52 PM,23.0,15.1,72,30.27,9.0,East,4.6,-,N/A,,Overcast,90,2013-01-24 18:52:00
1:52 PM,24.1,16.0,71,30.23,7.0,East,3.5,-,N/A,,Overcast,90,2013-01-24 19:52:00
2:52 PM,24.1,16.0,71,30.18,8.0,SE,9.2,-,N/A,,Overcast,130,2013-01-24 20:52:00
3:52 PM,25.0,16.0,69,30.18,8.0,SSE,3.5,-,N/A,,Overcast,160,2013-01-24 21:52:00
4:52 PM,27.0,18.0,69,30.17,8.0,South,8.1,-,N/A,,Overcast,190,2013-01-24 22:52:00
5:52 PM,26.1,18.0,71,30.16,7.0,South,5.8,-,N/A,,Overcast,190,2013-01-24 23:52:00
6:19 PM,24.8,17.6,74,30.07,8.0,SSW,5.8,-,N/A,,Scattered Clouds,200,2013-01-25 00:19:00
6:52 PM,24.1,18.0,77,30.17,7.0,South,4.6,-,N/A,,Clear,190,2013-01-25 00:52:00
7:52 PM,23.0,17.1,78,30.17,7.0,SSW,5.8,-,N/A,,Clear,200,2013-01-25 01:52:00
8:52 PM,23.0,18.0,81,30.17,8.0,South,4.6,-,N/A,,Clear,190,2013-01-25 02:52:00
9:52 PM,24.1,18.0,77,30.16,8.0,SSW,4.6,-,N/A,,Clear,200,2013-01-25 03:52:00
10:52 PM,25.0,18.0,75,30.16,8.0,South,3.5,-,N/A,,Clear,180,2013-01-25 04:52:00
11:52 PM,24.1,18.0,77,30.18,8.0,SW,6.9,-,N/A,,Clear,220,2013-01-25 05:52:00